STARLINK-33534, 63499

Orbit data source: Space-Track

STARLINK-33534, 63499 is a payload satellite owned by SpaceX/Seattle (US) in LEO that was launched on Mon, 07 Apr 2025 UTC via an FALCON 9 launch vehicle from the Air Force Western Test Range (AFWTR). Payload-class satellites include a variety of spacecraft equipped with specific instruments for various scientific and technological missions. These include communications satellites like Starlink; space stations such as the ISS; scientific satellites like the Hubble; Earth observation satellites from companies like Planet Labs, Umbra, and HawkEye 360; GPS; miniature CubeSats for education and research; and military/defense satellites.

Loading next visibility...
Identifier
63499, 2025-071G
Orbit
LEO
Last TLE update
10 hours ago
Origin
Manufacturer
SpaceX/Seattle
Mission
Operational Commercial Communications
Bus & Motor
STARLINK V2MO, Unknown motor
Mass
575 kg wet, ~530 kg dry
Launch date (UTC)
2025-04-07 (3 months ago)
Launch vehicle
FALCON 9
Launch site
Air Force Western Test Range (AFWTR)
Object type
Payload
Rocket body
Debris
Shape & HBR
Box + 1 Pan, 29 m
Radar Cross Section
41.120 m², Large (>1 m²)

Expand to show TLE details & history

TLE from 10 hours ago
0 STARLINK-33534
1 63499U 25071G   25182.51907644  .00021233  00000-0  53948-3 0  9993
2 63499  53.1577 227.3639 0001105  93.7184 266.3947 15.39611661 14283
Epoch: 2025-07-01T12:27Z
TLE epoch observation values (Epoch: 2025-07-01T12:27:28.204Z)
Latitude
-0.00003°
Longitude
120.68299°
Altitude
448.207 km
Speed
7.645 km/s
True Right ascension
15h 09m 27s
True Declination
0° 00' 00"
Sunlit
Object was in full shadow at epoch
Visualization orbit readout
Latitude
48.82908°
Longitude
-119.67443°
Altitude
452.027 km
Speed
7.648 km/s
Apparent Right ascension
22h 31m 10s
Apparent Declination
6° 25' 56"
Sunlit
Object is in daylight
Visualization observer readout
Local Sidereal Time
09:57:18
Azimuth
348.462° N
Elevation
-42.998°
Doppler factor
1
Orbital elements
Apogee altitude
448.269 km
Perigee altitude
446.76 km
Semi-major axis
6,825.652 km
Eccentricity
0.00011
Inclination
53.1577°
RAAN
227.3639°
Arg. of periapsis
93.7184°
True anomaly
Unknown
Mean anomaly
266.3947°
Eccentric anomaly
Unknown
Mean motion
3.84881 °/min
Orbital period
93.54 mins
BSTAR
0.00053948
Loading maneuver chart data...
Loading SW <> Apogee altitude chart data...
Loading historical data...
Loading historical data...
Loading historical data...
Loading historical data...
Loading historical data...
Loading historical data...
Loading historical data...

STARLINK-33534 Visibility forecast

Observer location: undefined°, undefined°

Span
Click to sort rows by Start time (UTC) header in descending order
Start Az.
Max El. time (UTC)
Max El. Az.
Max El.
End time (UTC)
End Az.
6 mins2025-07-02 05:46:54.966Z229.534° WSW2025-07-02 05:49:54.966Z47.117° ENE42.993°2025-07-02 05:52:54.966Z49.872° ENE
5 mins2025-07-02 12:19:54.966Z317.496° NNW2025-07-02 12:21:54.966Z15.066° NNE43.059°2025-07-02 12:24:54.966Z122.145° SE
|